Location: Bougoudala
(13.2282°N, 4.9477°W)
Time: 02:05:01
(UTC+00:00)

H-2A ROCKET BODY - Pass Details

Date: 29 January 2020
Orbit: 241 x 15393 km, 28.6° (Epoch: 25 February)

Event Time Altitude Azimuth Distance (km) Brightness Sun altitude
Rises 19:19:44 0° 299° (WNW) 5,125 7.0 -15.0°
Reaches altitude 10° 19:25:39 10° 317° (NW) 2,496 5.0 -16.4°
Maximum altitude 19:28:51 16° 357° (N) 1,358 3.2 -17.1°
Enters shadow 19:29:20 16° 9° (N) 1,281 3.0 -17.2°
